FW7792 Weather Reports


Display with metric or nautical units.
time (UTC)temp
F
wind
direction
speed
MPH
gust
MPH
rain 1hr
in
rain 24hr
in
rain mn
in
humidity
%
barometer
mb
20260504231538 67 4 1.0 6.0 0.00 0.00 0.00 92 1015.3
20260504231029 67 11 2.0 6.0 0.00 0.00 0.00 93 1015.3
20260504230527 67 14 2.0 6.0 0.00 0.00 0.00 93 1015.2
20260504230035 67 19 3.0 6.0 0.00 0.00 0.00 93 1015.1
20260504225527 67 29 2.0 5.0 0.00 0.00 0.00 93 1015.0
20260504225028 67 16 2.0 6.0 0.00 0.00 0.00 93 1015.1
20260504224545 67 19 3.0 6.0 0.00 0.00 0.00 93 1015.0
20260504224028 66 36 3.0 7.0 0.00 0.00 0.00 94 1015.0
20260504223528 66 39 2.0 7.0 0.00 0.00 0.00 94 1015.0
20260504223037 66 26 3.0 7.0 0.00 0.00 0.00 94 1014.9
20260504222527 66 33 3.0 7.0 0.00 0.00 0.00 94 1014.7
20260504222027 66 33 3.0 7.0 0.00 0.00 0.00 94 1014.8
20260504221538 66 29 3.0 7.0 0.00 0.00 0.00 94 1014.8
20260504221029 66 27 4.0 7.0 0.00 0.00 0.00 94 1014.8
20260504220612 66 43 3.0 7.0 0.00 0.00 0.00 94 1014.9
20260504220038 66 39 3.0 7.0 0.00 0.00 0.00 94 1014.8
20260504215528 66 32 3.0 9.0 0.00 0.00 0.00 94 1014.8
20260504215029 66 39 4.0 9.0 0.00 0.00 0.00 94 1014.9
20260504214547 66 36 3.0 8.0 0.00 0.00 0.00 94 1014.8
20260504214027 66 34 4.0 8.0 0.00 0.00 0.00 94 1014.7
20260504213528 66 50 4.0 7.0 0.00 0.00 0.00 94 1014.7
20260504213049 66 50 3.0 6.0 0.00 0.00 0.00 94 1014.6
20260504212528 66 44 3.0 7.0 0.00 0.00 0.00 94 1014.6
20260504212028 66 45 3.0 7.0 0.00 0.00 0.00 94 1014.7
20260504211540 66 35 3.0 6.0 0.00 0.00 0.00 95 1014.7
20260504211028 66 29 3.0 7.0 0.00 0.00 0.00 95 1014.7
20260504210528 66 38 3.0 7.0 0.00 0.00 0.00 95 1014.6
20260504210040 66 44 3.0 5.0 0.00 0.00 0.00 95 1014.5
20260504205528 66 35 2.0 5.0 0.00 0.00 0.00 95 1014.6
20260504205028 66 22 2.0 5.0 0.00 0.00 0.00 95 1014.6
20260504204535 66 16 2.0 5.0 0.00 0.00 0.00 95 1014.5
20260504204028 66 20 2.0 7.0 0.00 0.00 0.00 95 1014.5
20260504203528 66 4 2.0 7.0 0.00 0.00 0.00 95 1014.4
20260504203035 66 30 2.0 7.0 0.00 0.00 0.00 95 1014.2
20260504202528 66 18 2.0 9.0 0.00 0.00 0.00 95 1014.3
20260504202029 66 2 3.0 9.0 0.00 0.00 0.00 95 1014.3
20260504201537 66 15 2.0 8.0 0.00 0.00 0.00 95 1014.3
20260504201028 66 360 3.0 8.0 0.00 0.00 0.00 94 1014.2
20260504200528 66 357 1.0 7.0 0.00 0.00 0.00 94 1014.2
20260504200049 66 9 2.0 9.0 0.00 0.00 0.00 94 1014.2
20260504195527 66 360 3.0 9.0 0.00 0.00 0.00 93 1014.2
20260504195028 66 348 4.0 10.0 0.00 0.00 0.00 93 1014.4
20260504194541 67 354 4.0 10.0 0.00 0.00 0.00 92 1014.3
20260504194203 67 356 3.0 10.0 0.00 0.00 0.00 91 1014.3
20260504193529 67 343 4.0 11.0 0.00 0.00 0.00 91 1014.4
20260504193035 68 337 5.0 12.0 0.00 0.00 0.00 90 1014.4
20260504192528 68 345 5.0 12.0 0.00 0.00 0.00 89 1014.3
20260504192028 68 347 4.0 10.0 0.00 0.00 0.00 88 1014.3
20260504191550 69 341 3.0 9.0 0.00 0.00 0.00 87 1014.5
20260504191028 69 318 3.0 10.0 0.00 0.00 0.00 86 1014.6
20260504190528 69 337 3.0 12.0 0.00 0.00 0.00 85 1014.5
20260504190038 70 351 3.0 14.0 0.00 0.00 0.00 83 1014.4
20260504185528 70 318 5.0 14.0 0.00 0.00 0.00 81 1014.4
20260504185028 71 333 4.0 10.0 0.00 0.00 0.00 80 1014.3
20260504184552 71 325 2.0 10.0 0.00 0.00 0.00 80 1014.4
20260504184028 72 321 1.0 5.0 0.00 0.00 0.00 79 1014.4
20260504183527 72 308 1.0 6.0 0.00 0.00 0.00 79 1014.5
20260504183044 72 293 2.0 6.0 0.00 0.00 0.00 78 1014.4
20260504182527 72 285 1.0 6.0 0.00 0.00 0.00 78 1014.5
20260504182027 72 303 1.0 6.0 0.00 0.00 0.00 78 1014.3
20260504181544 72 0 1.0 4.0 0.00 0.00 0.00 78 1014.2
20260504181028 72 0 1.0 4.0 0.00 0.00 0.00 77 1014.1
20260504180528 73 314 1.0 4.0 0.00 0.00 0.00 77 1014.1
20260504180036 73 0 0.0 4.0 0.00 0.00 0.00 76 1014.1
20260504175527 73 295 1.0 4.0 0.00 0.00 0.00 75 1014.0
20260504175030 73 310 1.0 4.0 0.00 0.00 0.00 74 1014.0
20260504174542 74 297 1.0 4.0 0.00 0.00 0.00 74 1014.1
20260504174028 74 310 1.0 6.0 0.00 0.00 0.00 73 1014.2
20260504173527 75 0 1.0 7.0 0.00 0.00 0.00 72 1014.3
20260504173037 75 349 3.0 9.0 0.00 0.00 0.00 72 1014.4
20260504172530 75 358 4.0 10.0 0.00 0.00 0.00 70 1014.3
20260504172028 76 337 5.0 10.0 0.00 0.00 0.00 71 1014.4
20260504171535 75 1 5.0 10.0 0.00 0.00 0.00 71 1014.4
20260504171028 75 320 4.0 9.0 0.00 0.00 0.00 74 1014.6
20260504170527 74 351 3.0 10.0 0.00 0.00 0.00 73 1014.7
20260504151029 74 356 4.0 10.0 0.00 0.00 0.00 73 1016.0
20260504150528 73 0 3.0 10.0 0.00 0.00 0.00 73 1016.0
20260504141027 69 0 1.0 5.0 0.00 0.00 0.00 79 1016.6
20260504140528 68 325 1.0 6.0 0.00 0.00 0.00 79 1016.9
20260504130528 63 54 3.0 7.0 0.00 0.00 0.00 83 1016.6
20260504110528 54 71 2.0 5.0 0.00 0.00 0.00 87 1016.0
20260504100609 53 70 1.0 4.0 0.00 0.00 0.00 85 1015.9
20260504081541 51 85 1.0 6.0 0.00 0.00 0.00 87 1015.8
20260504081029 51 78 1.0 7.0 0.00 0.00 0.00 87 1015.9
20260504080526 51 87 1.0 7.0 0.00 0.00 0.00 87 1015.7
20260504050528 51 74 2.0 6.0 0.00 0.00 0.00 91 1017.2
20260504045528 51 83 3.0 6.0 0.00 0.00 0.00 90 1017.2
20260504045028 51 85 2.0 6.0 0.00 0.00 0.00 90 1017.6
20260504044550 51 81 2.0 6.0 0.00 0.00 0.00 90 1017.7
20260504044031 51 77 2.0 6.0 0.00 0.00 0.00 90 1017.6
20260504043528 51 91 1.0 3.0 0.00 0.00 0.00 90 1017.6
20260504043039 51 89 0.0 3.0 0.00 0.00 0.00 90 1017.8
20260504042528 51 0 0.0 0.0 0.00 0.00 0.00 90 1017.8
20260504042027 51 0 0.0 0.0 0.00 0.00 0.00 89 1017.7
20260504041539 51 0 0.0 0.0 0.00 0.00 0.00 89 1017.8
20260504041027 51 0 0.0 0.0 0.00 0.00 0.00 88 1017.8
20260504040611 51 0 0.0 1.0 0.00 0.00 0.00 88 1017.8
20260504040059 52 0 0.0 3.0 0.00 0.00 0.00 88 1017.9
20260504035527 52 0 0.0 4.0 0.00 0.00 0.00 88 1017.9
20260504035027 52 61 1.0 4.0 0.00 0.00 0.00 88 1017.9
20260504034553 52 0 1.0 4.0 0.00 0.00 0.00 87 1017.8
20260504034026 52 59 0.0 4.0 0.00 0.00 0.00 87 1017.9
20260504033526 53 63 0.0 5.0 0.00 0.00 0.00 86 1018.0
20260504033110 53 77 2.0 5.0 0.00 0.00 0.00 86 1018.0
20260504032526 53 70 2.0 5.0 0.00 0.00 0.00 86 1018.1
20260504032026 53 51 2.0 4.0 0.00 0.00 0.00 85 1018.0
20260504031544 53 54 1.0 5.0 0.00 0.00 0.00 86 1018.1
20260504031026 53 46 2.0 5.0 0.00 0.00 0.00 86 1018.2
20260504030526 53 44 1.0 7.0 0.00 0.00 0.00 86 1018.2
20260504030045 53 41 2.0 7.0 0.00 0.00 0.00 86 1018.4
20260504025529 53 0 2.0 8.0 0.00 0.00 0.00 87 1018.3
20260504025030 53 62 3.0 8.0 0.00 0.00 0.00 87 1018.4
20260504024539 53 69 4.0 9.0 0.00 0.00 0.00 88 1018.4
20260504024028 52 47 4.0 9.0 0.00 0.00 0.00 88 1018.3
20260504023528 52 57 4.0 9.0 0.00 0.00 0.00 88 1018.4
20260504023058 52 55 5.0 11.0 0.00 0.00 0.00 88 1018.5
20260504022528 52 50 5.0 11.0 0.00 0.00 0.00 88 1018.5
20260504022028 52 66 6.0 10.0 0.00 0.00 0.00 88 1018.5
20260504021538 52 43 5.0 10.0 0.00 0.00 0.00 88 1018.5
20260504021028 52 41 3.0 10.0 0.00 0.00 0.00 87 1018.8
20260504020527 52 53 5.0 10.0 0.00 0.00 0.00 86 1018.8
20260504020039 52 62 5.0 10.0 0.00 0.00 0.00 86 1018.9
20260504015528 52 54 4.0 10.0 0.00 0.00 0.00 86 1018.9
20260504015028 52 57 4.0 8.0 0.00 0.00 0.00 85 1019.0
20260504014548 52 56 3.0 7.0 0.00 0.00 0.00 85 1019.0
20260504014200 53 47 3.0 7.0 0.00 0.00 0.00 84 1019.3
20260504013526 53 58 2.0 5.0 0.00 0.00 0.00 84 1019.4
20260504013045 53 69 0.0 2.0 0.00 0.00 0.00 83 1019.4
20260504012526 53 0 0.0 2.0 0.00 0.00 0.00 83 1019.4
20260504012026 53 0 0.0 3.0 0.00 0.00 0.00 82 1019.5
20260504011544 53 0 0.0 4.0 0.00 0.00 0.00 82 1019.4
20260504011027 53 79 1.0 4.0 0.00 0.00 0.00 81 1019.4
20260504010526 54 110 2.0 5.0 0.00 0.00 0.00 81 1019.2
20260504010052 54 103 2.0 6.0 0.00 0.00 0.00 81 1019.3
20260504005526 54 101 3.0 7.0 0.00 0.00 0.00 81 1019.3
20260504005027 54 110 2.0 8.0 0.00 0.00 0.00 81 1019.3
20260504004551 54 101 4.0 8.0 0.00 0.00 0.00 80 1019.2
20260504004026 54 108 4.0 8.0 0.00 0.00 0.00 81 1019.4
20260504003527 54 99 3.0 7.0 0.00 0.00 0.00 81 1019.3
20260504003040 54 94 3.0 6.0 0.00 0.00 0.00 81 1019.3
20260504002526 54 99 3.0 6.0 0.00 0.00 0.00 81 1019.2
20260504002026 54 84 2.0 7.0 0.00 0.00 0.00 81 1019.3
20260504001537 54 95 2.0 7.0 0.00 0.00 0.00 81 1019.1
20260504001025 54 0 2.0 7.0 0.00 0.00 0.00 82 1019.2
20260504000526 53 97 3.0 7.0 0.00 0.00 0.00 83 1019.2
20260504000044 53 85 1.0 4.0 0.00 0.00 0.00 84 1019.1
20260503235526 53 0 0.0 4.0 0.00 0.00 0.00 84 1019.1
20260503235027 54 93 1.0 8.0 0.00 0.00 0.00 84 1018.9
20260503234545 54 86 4.0 8.0 0.00 0.00 0.00 84 1019.0
20260503234027 54 41 4.0 8.0 0.00 0.00 0.00 84 1019.1
20260503233529 54 71 3.0 7.0 0.00 0.00 0.00 84 1019.2
20260503233041 54 0 0.0 4.0 0.00 0.00 0.00 83 1019.3
20260503232526 54 0 0.0 4.0 0.00 0.00 0.00 83 1019.4
20260503232026 54 0 0.0 4.0 0.00 0.00 0.00 83 1019.4